Flag for U.S.A. Weather past 2 weeks in Alexandria, Virginia, U.S.A.

Now
82 °F

Light rain. Overcast.


Feels Like: 86 °F
Forecast: 70 / 89 °F
Wind: 3 mph from Northwest

Location: Reagan National Airport

Current Time: Aug 4, 2015 at 10:28:10 PM

Latest Report: Aug 4, 2015 at 9:52 PM


Visibility: 9 mi

Pressure: 29.91 "Hg

Humidity: 67%

Dew point: 70 °F

Location of AlexandriaLocation

Historic Weather in Alexandria — Graph

°F

Alexandria temperature yesterday

Maximum temperature yesterday: 92 °F (at 2:52 PM)
Minimum temperature yesterday: 72 °F (at 5:52 AM)
Average temperature yesterday: 83 °F

Past Weeks' High & Low Weather Summary

 TemperatureHumidityPressure
High96 °F (Aug 4, 3:52 PM)87% (Jul 29, 4:52 AM)30.02 "Hg (Jul 29, 4:52 AM)
Low69 °F (Jul 24, 5:52 AM)28% (Jul 24, 12:52 PM)29.63 "Hg (Jul 21, 5:52 PM)
Average83 °F58%29.92 "Hg
* Reported Jul 20 8:52 PM — Aug 4 8:52 PM, Alexandria, Weather by CustomWeather, © 2015

Note: Actual official high and low records may vary slightly from our data, if they occured in-between our weather recording intervals... More about our weather records

Advertising

Alexandria weather history for previous 24 hours

 ConditionsComfort  
Time TempWeatherWind HumidityBarometerVisibility
8:52 PM
Tue, Aug 4
82 °FPartly sunny.6 mph65%29.89 "Hg10 mi
7:52 PM85 °FBroken clouds.7 mph57%29.89 "Hg10 mi
6:52 PM89 °FLight rain. Broken clouds.13 mph48%29.88 "Hg10 mi
5:52 PM93 °FBroken clouds.10 mph38%29.85 "Hg10 mi
4:52 PM94 °FPartly sunny.14 mph43%29.88 "Hg10 mi
3:52 PM96 °FBroken clouds.15 mph34%29.88 "Hg10 mi
2:52 PM95 °FScattered clouds.14 mph35%29.89 "Hg10 mi
1:52 PM93 °FScattered clouds.8 mph37%29.91 "Hg10 mi
12:52 PM93 °FPassing clouds.10 mph41%29.92 "Hg10 mi
11:52 AM89 °FPassing clouds.6 mph52%29.93 "Hg10 mi
10:52 AM89 °FPassing clouds.7 mph46%29.94 "Hg10 mi
9:52 AM85 °FPassing clouds.5 mph57%29.93 "Hg10 mi
8:52 AM82 °FPassing clouds.8 mph55%29.93 "Hg10 mi
7:52 AM80 °FScattered clouds.5 mph54%29.93 "Hg10 mi
6:52 AM79 °FPassing clouds.3 mph54%29.92 "Hg10 mi
5:52 AM77 °FPartly cloudy.6 mph56%29.90 "Hg10 mi
4:52 AM80 °FMostly cloudy.5 mph67%29.88 "Hg6 mi
3:52 AM79 °FPassing clouds.3 mph67%29.86 "Hg8 mi
2:52 AM79 °FPassing clouds.5 mph67%29.84 "Hg5 mi
1:52 AM81 °FPassing clouds.8 mph65%29.85 "Hg6 mi
12:52 AM81 °FPassing clouds.6 mph67%29.84 "Hg5 mi
11:52 PM
Mon, Aug 3
82 °FPassing clouds.8 mph63%29.84 "Hg10 mi
10:52 PM84 °FPassing clouds.10 mph61%29.83 "Hg10 mi
Weather by CustomWeather, © 2015

See weather overviewHow to use our weather pages